Miscellaneous Local Product
Issued by NWS Hastings, NE

Home | Current Version | Previous Version | Graphics & Text | Print | Product List | Glossary On
Versions: 1 2 3 4 5 6 7 8 9 10 11 12 13 14 15 16 17 18 19 20 21 22 23 24 25 26 27 28 29 30 31 32 33 34 35 36 37 38 39 40 41 42 43 44 45 46 47 48 49 50
000
AXUS43 KGID 252302
MISGRI

GID CWA HOURLY WEATHER ROUNDUP
NATIONAL WEATHER SERVICE HASTINGS NE
500 PM CST THU DEC 25 2014

NOTE: "FAIR" INDICATES FEW OR NO CLOUDS BELOW 12,000 FEET WITH NO
SIGNIFICANT WEATHER AND/OR OBSTRUCTIONS TO VISIBILITY.

...SOUTH CENTRAL NEBRASKA...

CITY           SKY/WX    TMP DP  RH WIND       PRES   REMARKS
GRAND ISLAND   CLEAR     41  26  55 CALM      29.59R
HASTINGS       CLEAR     43  26  51 CALM      29.56R
KEARNEY        CLEAR     37  25  60 N8        29.58R WCI  31
ORD            MOCLDY    33  27  78 N14       29.62R WCI  23
YORK           CLEAR     45  30  57 S3        29.58S
AURORA         CLEAR     42  29  61 CALM      29.58R
LEXINGTON      PTCLDY    38  26  63 CALM      29.59R
HOLDREGE       CLEAR     39  27  61 N7        29.55S WCI  34
HEBRON         PTCLDY    44  29  56 CALM      29.57R

...NEBRASKA PANHANDLE...

CITY           SKY/WX    TMP DP  RH WIND       PRES   REMARKS
CHADRON        CLOUDY    26  22  84 NE20G29   29.79R FOG     WCI  12
ALLIANCE       LGT SNOW  26  24  92 N21G29    29.67R FOG     WCI  12
SCOTTSBLUFF    LGT SNOW  28  24  85 N16       29.69R FOG     WCI  16
SIDNEY         SNOW      27  25  92 NE21      29.63R VSB 1/2 WCI  13

...WESTERN AND NORTH CENTRAL NEBRASKA...

CITY           SKY/WX    TMP DP  RH WIND       PRES   REMARKS
VALENTINE      LGT SNOW  29  26  89 N16G25    29.74R FOG     WCI  17
AINSWORTH      LGT SNOW  29  28  96 N18G26    29.71R VSB 1   WCI  16
ONEILL         CLOUDY    32  31  96 N16       29.67R WCI  21
BROKEN BOW     CLOUDY    32  26  78 N20G26    29.63R WCI  20
IMPERIAL       CLOUDY    32  25  75 N23       29.62R WCI  19
NORTH PLATTE   CLOUDY    32  25  75 N20G26    29.63R WCI  20
MCCOOK         CLEAR     38  23  55 N9        29.58R WCI  31

...EASTERN NEBRASKA...

CITY           SKY/WX    TMP DP  RH WIND       PRES   REMARKS
NORFOLK        CLOUDY    39  32  76 N7        29.62R WCI  34
SO SIOUX CITY  CLEAR     41  32  70 E5        29.67R
TEKAMAH        CLEAR     42  35  76 E6        29.64R
COLUMBUS       CLEAR     43  28  56 CALM      29.62R
ALBION         CLOUDY    36  29  76 N7        29.62R WCI  30
OMAHA EPPLEY   PTCLDY    46  33  60 S8        29.64R
OFFUTT AFB     CLEAR     46  33  61 SE5       29.62R
MILLARD        CLEAR     49  32  52 S6        29.62R
LINCOLN        CLEAR     42  30  62 S8        29.61R
NEBRASKA CITY  PTCLDY    44  29  55 S6        29.63R
BEATRICE       PTCLDY    46  32  58 S9        29.59S
FALLS CITY     MOCLDY    47  33  58 S14       29.63R

...NORTHERN KANSAS...

CITY           SKY/WX    TMP DP  RH WIND       PRES   REMARKS
GOODLAND       PTCLDY    39  27  62 N15       29.55R WCI  31
HILL CITY      PTCLDY    46  26  45 NW14      29.53R
NORTON         CLEAR     39  21  48 NW10      29.53R WCI  32
PHILLIPSBURG   CLEAR     50  27  40 NW8       29.53R
SMITH CENTER   CLEAR     48  28  46 E6        29.52R
BELOIT         CLEAR     48  30  49 SE9       29.53R
HAYS           CLOUDY    52  25  35 SE3       29.50R
RUSSELL        MOCLDY    51  29  42 S16G22    29.50R
CONCORDIA      MOCLDY    47  31  53 SE8       29.56R
SALINA         MOCLDY    50  31  48 S12       29.57R
TOPEKA         CLOUDY    53  30  41 S15G22    29.67R



USA.gov is the U.S. government's official web portal to all federal, state and local government web resources and services.